Location: Camerons Lookout
(40.9833°S, 175.9333°E)
Time: 22:06:22
(UTC+00:00)

Cosmos 1862 - Pass Details

Date: 14 January 2026
Orbit: 468 x 483 km, 82.5° (Epoch: 18 February)

Event Time Altitude Azimuth Distance (km) Brightness Sun altitude
Rises 10:52:09 0° 187° (S) 2,574 8.0 -24.1°
Reaches altitude 10° 10:54:16 10° 185° (S) 1,689 6.7 -24.3°
Enters shadow 10:57:06 49° 171° (S) 637 3.9 -24.5°
